BENGL11 KNBC-KNQX

Flight info

Callsign BENGL11
Flight time 0h 47m
Altitude 32000
Route MIA
Aircraft VF35/M-SDFIRY/LB1

Departure

Time 2026-05-07 19:04
Airport Beaufort MCAS - Merritt Field (KNBC)

Arrival

Time 2026-05-07 19:51
Airport Naval Air Station Key West/Boca Chica Field (KNQX)
Time Latitude Longitude Altitude Speed Heading
2026-05-07 19:02 32.46915 -80.72800 43 ft 0 kts 102°
2026-05-07 19:03 32.46886 -80.72786 39 ft 14 kts 187°
2026-05-07 19:03 32.46854 -80.72857 43 ft 17 kts 347°
2026-05-07 19:03 32.47011 -80.72941 44 ft 34 kts 323°
2026-05-07 19:03 32.47232 -80.72856 41 ft 95 kts 40°
2026-05-07 19:04 32.48178 -80.71837 199 ft 243 kts 40°
2026-05-07 19:04 32.49591 -80.70069 1792 ft 356 kts 51°
2026-05-07 19:04 32.50872 -80.67048 4284 ft 467 kts 73°
2026-05-07 19:04 32.51334 -80.62917 7344 ft 530 kts 92°
2026-05-07 19:05 32.50736 -80.58550 10587 ft 551 kts 110°
2026-05-07 19:05 32.49066 -80.54421 13994 ft 568 kts 128°
2026-05-07 19:05 32.46390 -80.50847 17517 ft 595 kts 144°
2026-05-07 19:05 32.42920 -80.48144 21073 ft 612 kts 160°
2026-05-07 19:06 32.38956 -80.46524 24695 ft 594 kts 176°
2026-05-07 19:06 32.31802 -80.46490 28848 ft 587 kts 195°
2026-05-07 19:06 32.27736 -80.46899 29349 ft 592 kts 184°
2026-05-07 19:07 32.23605 -80.46657 30000 ft 595 kts 181°
2026-05-07 19:07 32.19485 -80.46216 30588 ft 594 kts 180°
2026-05-07 19:07 32.15377 -80.45728 31197 ft 591 kts 184°
2026-05-07 19:07 32.11289 -80.45633 31560 ft 587 kts 187°
2026-05-07 19:08 32.07192 -80.45622 31724 ft 591 kts 182°
2026-05-07 19:08 32.03080 -80.45414 31803 ft 591 kts 186°
2026-05-07 19:08 31.94842 -80.45210 31870 ft 594 kts 184°
2026-05-07 19:09 31.86570 -80.45002 31914 ft 597 kts 184°
2026-05-07 19:09 31.78246 -80.44774 32029 ft 616 kts 184°
2026-05-07 19:10 31.73830 -80.44641 32146 ft 656 kts 184°
2026-05-07 19:10 31.69113 -80.44512 32174 ft 697 kts 184°
2026-05-07 19:10 31.64132 -80.44373 32159 ft 734 kts 183°
2026-05-07 19:10 31.58880 -80.44225 32141 ft 778 kts 183°
2026-05-07 19:11 31.53303 -80.44073 32124 ft 827 kts 182°
2026-05-07 19:11 31.47368 -80.43905 32110 ft 878 kts 182°
2026-05-07 19:11 31.41075 -80.43733 32095 ft 932 kts 182°
2026-05-07 19:11 31.34394 -80.43546 32084 ft 986 kts 182°
2026-05-07 19:12 31.27459 -80.43351 32067 ft 1000 kts 182°
2026-05-07 19:12 31.20502 -80.43161 32049 ft 1001 kts 182°
2026-05-07 19:12 31.06565 -80.42778 32005 ft 1002 kts 182°
2026-05-07 19:13 30.92609 -80.42394 31981 ft 1002 kts 182°
2026-05-07 19:13 30.78908 -80.42019 31962 ft 1003 kts 182°
2026-05-07 19:14 30.64947 -80.41637 31958 ft 1004 kts 182°
2026-05-07 19:14 30.50967 -80.41257 31960 ft 1004 kts 182°
2026-05-07 19:15 30.36995 -80.40877 31958 ft 1003 kts 182°
2026-05-07 19:15 30.23041 -80.40499 31965 ft 1002 kts 182°
2026-05-07 19:16 30.09158 -80.40124 31966 ft 1003 kts 182°
2026-05-07 19:16 29.95197 -80.39749 31973 ft 1003 kts 182°
2026-05-07 19:17 29.81237 -80.39375 31979 ft 1003 kts 182°
2026-05-07 19:17 29.67263 -80.39002 31982 ft 1004 kts 182°
2026-05-07 19:18 29.53273 -80.38630 31986 ft 1004 kts 182°
2026-05-07 19:18 29.39391 -80.38261 31988 ft 1004 kts 182°
2026-05-07 19:19 29.25391 -80.37890 31992 ft 1005 kts 182°
2026-05-07 19:19 29.11397 -80.37520 31996 ft 1005 kts 182°
2026-05-07 19:20 28.97392 -80.37150 31981 ft 1006 kts 182°
2026-05-07 19:20 28.83382 -80.36781 31984 ft 1007 kts 181°
2026-05-07 19:21 28.69358 -80.36413 31980 ft 1008 kts 181°
2026-05-07 19:21 28.55418 -80.36047 31986 ft 1008 kts 181°
2026-05-07 19:22 28.41374 -80.35679 31986 ft 1008 kts 181°
2026-05-07 19:22 28.27348 -80.35313 31996 ft 1008 kts 181°
2026-05-07 19:23 28.20382 -80.35133 31995 ft 965 kts 181°
2026-05-07 19:23 28.14171 -80.34961 31982 ft 829 kts 182°
2026-05-07 19:23 28.08773 -80.34830 31959 ft 725 kts 182°
2026-05-07 19:23 28.04053 -80.34700 31925 ft 635 kts 183°
2026-05-07 19:24 27.99946 -80.34600 31834 ft 578 kts 184°
2026-05-07 19:24 27.95905 -80.34507 31897 ft 584 kts 183°
2026-05-07 19:24 27.87671 -80.34288 31831 ft 597 kts 183°
2026-05-07 19:25 27.79333 -80.34070 31855 ft 601 kts 183°
2026-05-07 19:25 27.70954 -80.33856 31928 ft 601 kts 183°
2026-05-07 19:26 27.62585 -80.33642 31977 ft 602 kts 183°
2026-05-07 19:26 27.54213 -80.33426 32012 ft 602 kts 183°
2026-05-07 19:27 27.45834 -80.33211 32030 ft 602 kts 183°
2026-05-07 19:27 27.37459 -80.32997 32038 ft 602 kts 182°
2026-05-07 19:28 27.29084 -80.32783 32039 ft 602 kts 183°
2026-05-07 19:28 27.20756 -80.32570 32042 ft 602 kts 182°
2026-05-07 19:29 27.12374 -80.32356 32040 ft 602 kts 182°
2026-05-07 19:29 27.03991 -80.32143 32044 ft 603 kts 182°
2026-05-07 19:30 26.95602 -80.31931 32042 ft 602 kts 182°
2026-05-07 19:30 26.87223 -80.31776 32047 ft 602 kts 183°
2026-05-07 19:31 26.78839 -80.31716 32048 ft 602 kts 184°
2026-05-07 19:31 26.70512 -80.31747 32048 ft 601 kts 184°
2026-05-07 19:32 26.62141 -80.31872 32048 ft 602 kts 185°
2026-05-07 19:32 26.53771 -80.32090 32046 ft 601 kts 185°
2026-05-07 19:33 26.45405 -80.32401 32043 ft 601 kts 186°
2026-05-07 19:33 26.37025 -80.32686 32069 ft 605 kts 179°
2026-05-07 19:34 26.28623 -80.31923 32062 ft 604 kts 182°
2026-05-07 19:34 26.20198 -80.31435 32013 ft 608 kts 180°
2026-05-07 19:35 26.15973 -80.31235 31269 ft 608 kts 180°
2026-05-07 19:35 26.11745 -80.30953 30582 ft 610 kts 179°
2026-05-07 19:35 26.07555 -80.30699 29887 ft 612 kts 180°
2026-05-07 19:35 26.03295 -80.30458 29111 ft 613 kts 179°
2026-05-07 19:36 25.99019 -80.30177 28360 ft 614 kts 180°
2026-05-07 19:36 25.94748 -80.29938 27644 ft 615 kts 179°
2026-05-07 19:36 25.90468 -80.29668 26934 ft 617 kts 179°
2026-05-07 19:36 25.86171 -80.29503 26257 ft 615 kts 188°
2026-05-07 19:37 25.82004 -80.30335 25717 ft 610 kts 203°
2026-05-07 19:37 25.78198 -80.32360 25190 ft 605 kts 218°
2026-05-07 19:37 25.75053 -80.35428 24678 ft 600 kts 234°
2026-05-07 19:37 25.72578 -80.39148 24106 ft 599 kts 238°
2026-05-07 19:38 25.70277 -80.42941 23481 ft 602 kts 237°
2026-05-07 19:38 25.67885 -80.46767 22746 ft 606 kts 236°
2026-05-07 19:38 25.65365 -80.50524 22023 ft 609 kts 233°
2026-05-07 19:38 25.62716 -80.54205 21321 ft 613 kts 232°
2026-05-07 19:39 25.59972 -80.57855 20621 ft 617 kts 231°
2026-05-07 19:39 25.57194 -80.61474 19937 ft 621 kts 231°
2026-05-07 19:39 25.54359 -80.65120 19261 ft 624 kts 230°
2026-05-07 19:39 25.51518 -80.68740 18602 ft 628 kts 230°
2026-05-07 19:40 25.48483 -80.72267 17916 ft 632 kts 223°
2026-05-07 19:40 25.45165 -80.75507 17182 ft 634 kts 223°
2026-05-07 19:40 25.41998 -80.78911 16471 ft 635 kts 225°
2026-05-07 19:40 25.38814 -80.82222 15788 ft 638 kts 223°
2026-05-07 19:41 25.35581 -80.85599 15098 ft 640 kts 225°
2026-05-07 19:41 25.32355 -80.89005 14430 ft 642 kts 223°
2026-05-07 19:41 25.29087 -80.92381 13766 ft 644 kts 224°
2026-05-07 19:41 25.25842 -80.95810 13024 ft 646 kts 223°
2026-05-07 19:42 25.22556 -80.99210 12299 ft 649 kts 223°
2026-05-07 19:42 25.19273 -81.02652 11596 ft 651 kts 223°
2026-05-07 19:42 25.15965 -81.06093 10901 ft 653 kts 223°
2026-05-07 19:42 25.12645 -81.09547 10219 ft 660 kts 223°
2026-05-07 19:43 25.09287 -81.13051 9625 ft 607 kts 223°
2026-05-07 19:43 25.06476 -81.15964 8969 ft 527 kts 223°
2026-05-07 19:43 25.03846 -81.18700 8304 ft 528 kts 223°
2026-05-07 19:43 25.01182 -81.21468 7632 ft 527 kts 223°
2026-05-07 19:44 24.98521 -81.24227 6958 ft 525 kts 223°
2026-05-07 19:44 24.95865 -81.26984 6280 ft 525 kts 223°
2026-05-07 19:44 24.93453 -81.29483 5627 ft 524 kts 223°
2026-05-07 19:44 24.90794 -81.32238 4920 ft 524 kts 223°
2026-05-07 19:45 24.88133 -81.34994 4195 ft 524 kts 224°
2026-05-07 19:45 24.85466 -81.37753 3472 ft 525 kts 223°
2026-05-07 19:45 24.82794 -81.40516 2752 ft 527 kts 223°
2026-05-07 19:45 24.80126 -81.43273 2140 ft 508 kts 223°
2026-05-07 19:46 24.77773 -81.45705 1840 ft 428 kts 223°
2026-05-07 19:46 24.75740 -81.47802 1695 ft 375 kts 223°
2026-05-07 19:46 24.73864 -81.49726 1639 ft 366 kts 223°
2026-05-07 19:46 24.71902 -81.51276 1607 ft 328 kts 209°
2026-05-07 19:47 24.70379 -81.52159 1597 ft 297 kts 206°
2026-05-07 19:47 24.68650 -81.53068 1589 ft 256 kts 205°
2026-05-07 19:47 24.67117 -81.53838 1567 ft 216 kts 204°
2026-05-07 19:47 24.65731 -81.54521 1575 ft 220 kts 204°
2026-05-07 19:48 24.64340 -81.55199 1581 ft 218 kts 204°
2026-05-07 19:48 24.62952 -81.55873 1589 ft 217 kts 203°
2026-05-07 19:48 24.61569 -81.56543 1609 ft 216 kts 204°
2026-05-07 19:48 24.60364 -81.57526 1611 ft 211 kts 226°
2026-05-07 19:49 24.59575 -81.58585 1588 ft 171 kts 240°
2026-05-07 19:49 24.59117 -81.59776 1561 ft 171 kts 252°
2026-05-07 19:49 24.58851 -81.61036 1232 ft 168 kts 263°
2026-05-07 19:49 24.58756 -81.62328 807 ft 169 kts 267°
2026-05-07 19:50 24.58672 -81.63605 701 ft 174 kts 266°
2026-05-07 19:50 24.58589 -81.64463 586 ft 174 kts 264°
2026-05-07 19:50 24.58404 -81.65748 300 ft 174 kts 257°
2026-05-07 19:50 24.58087 -81.67003 58 ft 169 kts 254°
2026-05-07 19:51 24.57778 -81.68119 8 ft 97 kts 252°
2026-05-07 19:51 24.57642 -81.68615 11 ft 61 kts 254°
2026-05-07 19:51 24.57647 -81.68901 14 ft 14 kts 351°
2026-05-07 19:51 24.57860 -81.68944 15 ft 29 kts 313°
2026-05-07 19:52 24.57960 -81.69078 19 ft 0 kts 310°